Kansas Department of Transportation
RWIS(Road and Runway Information System) Map and Weather Data





Station
Surface
Air
Wind
Site IDSensor TypeLocationTemperature (°F)Temperature (°F)Humidity (%)Speed (mi/h)Gusts (mi/h)DirectionTime
123002AtmosphericBonner Springs 505169SSWMar 7 2021 8:55AM
123002ApproachBonner Springs57     Mar 7 2021 8:55AM
123002DeckBonner Springs61     Mar 7 2021 8:55AM
123014AtmosphericBull Creek 525169SWMar 7 2021 8:55AM
123014DeckBull Creek57     Mar 7 2021 8:55AM
123014DepartureBull Creek57     Mar 7 2021 8:55AM
123015AtmosphericLeavenworth 5054816SWMar 7 2021 8:55AM
123015DeckLeavenworth54     Mar 7 2021 8:55AM
123015DepartureLeavenworth55     Mar 7 2021 8:55AM
123020AtmosphericMayetta 50511117SWMar 7 2021 8:55AM
123020RoadwayMayettaUnavailable     Mar 7 2021 8:55AM
123020DeckMayettaUnavailable     Mar 7 2021 8:55AM
505000AtmosphericKTA 1 45900NEMar 7 2021 8:50AM
505000ApproachKTA 154     Mar 7 2021 9:00AM
505000DeckKTA 155     Mar 7 2021 9:00AM
505001AtmosphericKTA 2 4859711SWMar 7 2021 8:50AM
505001ApproachKTA 255     Mar 7 2021 8:50AM
505001DeckKTA 254     Mar 7 2021 8:50AM
505002AtmosphericKTA 3 488037SWMar 7 2021 8:50AM
505002ApproachKTA 355     Mar 7 2021 8:50AM
505002DeckKTA 352     Mar 7 2021 8:50AM
505003AtmosphericKTA 4 48471114NMar 7 2021 8:50AM
505003ApproachKTA 455     Mar 7 2021 8:50AM
505003DeckKTA 4Unavailable     Mar 7 2021 8:50AM
505004AtmosphericKTA 5 52991420NWMar 7 2021 8:50AM
505004RoadwayKTA 555     Mar 7 2021 8:50AM
505004RoadwayKTA 555     Mar 7 2021 8:50AM
505005AtmosphericKTA 6 4852811SSWMar 7 2021 8:50AM
505005Approach KTA 655     Mar 7 2021 8:50AM
505005DeckKTA 654     Mar 7 2021 8:50AM
505006AtmosphericKTA 7 572647 Mar 7 2021 8:50AM
505006ApproachKTA 757     Mar 7 2021 8:50AM
505006DeckKTA 757     Mar 7 2021 8:50AM
505007AtmosphericKTA 8 5256611SWMar 7 2021 8:50AM
505007ApproachKTA 857     Mar 7 2021 8:50AM
505007DeckKTA 854     Mar 7 2021 8:50AM
505008AtmosphericKTA 9 524347SWMar 7 2021 8:50AM
505008ApproachKTA 959     Mar 7 2021 8:50AM
505008DeckKTA 955     Mar 7 2021 8:50AM
505009AtmosphericKTA 10 616148SMar 7 2021 8:50AM
505009ApproachKTA 1057     Mar 7 2021 8:50AM
505009DeckKTA 1054     Mar 7 2021 8:50AM
505010AtmosphericWebb 50551115SSEMar 7 2021 8:55AM
505010DeckWebb      Mar 7 2021 8:55AM
505010NullWebb55     Mar 7 2021 8:55AM
505014AtmosphericI-135 4849817SSWMar 7 2021 9:00AM
505014ApproachI-13555     Mar 7 2021 9:00AM
505014DeckI-13557     Mar 7 2021 9:00AM
540000AtmosphericBlue Rapids 54551217SSWMar 7 2021 8:55AM
540000DeckBlue Rapids54     Mar 7 2021 8:55AM
540000DepartureBlue RapidsUnavailable     Mar 7 2021 8:55AM
540001AtmosphericSabetha 5255913SSWMar 7 2021 8:55AM
540001ApproachSabethaUnavailable     Mar 7 2021 8:55AM
540001DeckSabethaUnavailable     Mar 7 2021 8:55AM
540002AtmosphericWestgate 5246711SMar 7 2021 8:55AM
540002DeckWestgate59     Mar 7 2021 8:55AM
540002DepartureWestgateUnavailable     Mar 7 2021 8:55AM
540003AtmosphericEmporia 4859811SWMar 7 2021 8:55AM
540003ApproachEmporia54     Mar 7 2021 8:55AM
540003DeckEmporia54     Mar 7 2021 8:55AM
540007AtmosphericManhattan 544867SWMar 7 2021 8:55AM
540007DepartureManhattan55     Mar 7 2021 8:55AM
540007DeckManhattan59     Mar 7 2021 8:55AM
541000AtmosphericElkhart 46501419SSWMar 7 2021 8:55AM
541000ApproachElkhart50     Mar 7 2021 8:55AM
541000DeckElkhart48     Mar 7 2021 8:55AM
541003AtmosphericFord 48661217SMar 7 2021 8:55AM
541003DeckFordUnavailable     Mar 7 2021 8:55AM
541003DepartureFord52     Mar 7 2021 8:55AM
541004AtmosphericScott 46571417WSWMar 7 2021 8:55AM
541004DepartureScott52     Mar 7 2021 8:55AM
541005AtmosphericNess 52591824SMar 7 2021 8:55AM
541005DeckNess54     Mar 7 2021 8:55AM
541005DepartureNess55     Mar 7 2021 8:55AM
541007AtmosphericGarden City 46641320SMar 7 2021 8:55AM
541007ApproachGarden City      Mar 7 2021 8:55AM
541007DeckGarden City48     Mar 7 2021 8:55AM
543000AtmosphericJunction City 5446611NNEMar 7 2021 8:55AM
543000ApproachJunction City      Mar 7 2021 8:55AM
543000DeckJunction City57     Mar 7 2021 8:55AM
543001AtmosphericEllsworth 50602024SMar 7 2021 8:55AM
543001RoadwayEllsworth55     Mar 7 2021 8:55AM
543002AtmosphericMcPherson 48601317SSWMar 7 2021 8:55AM
543002ApproachMcPherson52     Mar 7 2021 8:55AM
543002DeckMcPherson50     Mar 7 2021 8:55AM
543003AtmosphericSalina 50471114NMar 7 2021 8:55AM
543003DepartureSalina54     Mar 7 2021 8:55AM
543003RoadwaySalina46     Mar 7 2021 8:55AM
543004AtmosphericConcordia 48611218SMar 7 2021 8:55AM
543004ApproachConcordia52     Mar 7 2021 8:55AM
543004DeckConcordiaUnavailable     Mar 7 2021 8:55AM
560000AtmosphericEdson 416556WNWMar 7 2021 8:55AM
560000RoadwayEdson46     Mar 7 2021 8:55AM
560000RoadwayEdson46     Mar 7 2021 8:55AM
560001AtmosphericOakley 4359710SMar 7 2021 8:55AM
560001ApproachOakley48     Mar 7 2021 8:55AM
560001DeckOakley50     Mar 7 2021 8:55AM
560002AtmosphericAtwood 396546SSWMar 7 2021 8:55AM
560002ApproachAtwoodUnavailable     Mar 7 2021 8:55AM
560002DeckAtwood      Mar 7 2021 8:55AM
560003AtmosphericJennings 4657610SWMar 7 2021 8:55AM
560003ApproachJennings48     Mar 7 2021 8:55AM
560003DeckJennings48     Mar 7 2021 8:55AM
560003DeckJennings48     Mar 7 2021 8:55AM
560004AtmosphericWakeeney 48651218SSWMar 7 2021 8:55AM
560004ApproachWakeeneyUnavailable     Mar 7 2021 8:55AM
560004DeckWakeeney54     Mar 7 2021 8:55AM
560005AtmosphericWalker 50561317SSWMar 7 2021 8:55AM
560005ApproachWalker55     Mar 7 2021 8:55AM
560005DeckWalker54     Mar 7 2021 8:55AM
560006AtmosphericBow Creek(Stockton) 52501016SWMar 7 2021 8:55AM
560006ApproachBow Creek(Stockton)55     Mar 7 2021 8:55AM
560006DeckBow Creek(Stockton)106     Mar 7 2021 8:55AM
560007AtmosphericLebanon 5062912SMar 7 2021 8:55AM
560007ApproachLebanonUnavailable     Mar 7 2021 8:55AM
560007DeckLebanon54     Mar 7 2021 8:55AM
560008AtmosphericWallace 416124WSWMar 7 2021 8:55AM
560008ApproachWallaceUnavailable     Mar 7 2021 8:55AM
560008DeckWallace50     Mar 7 2021 8:55AM
572000AtmosphericGreat Bend 52561319SSWMar 7 2021 8:55AM
572000ApproachGreat BendUnavailable     Mar 7 2021 8:55AM
572000DeckGreat Bend54     Mar 7 2021 8:55AM
572001AtmosphericPratt 522618SWMar 7 2021 8:55AM
572001ApproachPratt55     Mar 7 2021 8:55AM
572001DeckPratt57     Mar 7 2021 8:55AM
572002AtmosphericAnthony 525136SMar 7 2021 8:55AM
572002ApproachAnthony118     Mar 7 2021 8:55AM
572002DeckAnthony113     Mar 7 2021 8:55AM
573000AtmosphericEureka 5242513SSWMar 7 2021 8:55AM
573000DeckEureka55     Mar 7 2021 8:55AM
573000DepartureEureka55     Mar 7 2021 8:55AM
573001AtmosphericGarnett 524549SSWMar 7 2021 8:55AM
573001ApproachGarnettUnavailable     Mar 7 2021 8:55AM
573001DeckGarnettUnavailable     Mar 7 2021 8:55AM
573003AtmosphericChetopa 505426SSEMar 7 2021 8:55AM
573003DeckChetopa57     Mar 7 2021 8:55AM
573003DeckChetopa57     Mar 7 2021 8:55AM
573003DepartureChetopaUnavailable     Mar 7 2021 8:55AM
573004AtmosphericChanute 5250711SMar 7 2021 8:55AM
573004ApproachChanute59     Mar 7 2021 8:55AM
573004DeckChanute57     Mar 7 2021 8:55AM